Location: Atherton
(17.2661°S, 145.4859°E)
Time: 23:22:31
(UTC+10:00)

ARIANE 6 FM1 Upper Stage - Pass Details

Date: 24 May 2025
Orbit: 531 x 610 km, 62.0° (Epoch: 15 June)

Event Time Altitude Azimuth Distance (km) Brightness Sun altitude
Rises 05:22:56 0° 4° (N) 2,816 6.5 -17.8°
Reaches altitude 10° 05:25:40 10° 21° (NNE) 1,934 5.9 -17.2°
Maximum altitude 05:28:51 20° 68° (ENE) 1,430 5.8 -16.5°
Drops below altitude 10° 05:32:03 10° 114° (ESE) 1,967 6.1 -15.7°
Sets 05:34:51 0° 131° (SE) 2,882 6.7 -15.1°
